Weather in Rylevo

Russia / Tula Oblast     53°51′03″N   36°50′06″E
temp.,
°C
wind,
m/s
gust,
m/s
humid.,
%
clouds,
%
prec.,
mm/h
press.,
hPa
HPBL,
m
25 february, thu
thu2500:00−10sw5895100 0.1 1030255
03:00−8sw5995100 0.1 1028253
06:00−4wsw71396100 0.1 1023442
09:00+1wsw71598100 0.1 1020477
12:00+2wsw715100100 0.5 1018375
15:00+2w511100100 0.5 1017240
18:00+2wnw511100100 0.1 1017244
21:00+2w511100100 0.1 1018239
26 february, fri
fri2600:00+2w512100100 0.2 1017291
03:00+2w612100100 0.3 1017284
06:00+2wsw61399100 0.1 1015286
09:00+2wsw61299100 0.1 1014348
12:00+2wsw714100100 0.0 1012522
15:00+2wsw716100100 0.1 1010442
18:00+2w71698100 0.0 1008590
21:00+2w61593100 0.1 1009619
27 february, sat
sat2700:00+1w61391100 0.0 1007535
03:00+1w61297100 0.1 1007536
06:00+1w61198100 0.4 1006475
09:00+1wnw61198100 0.8 1005466
12:00+1wnw510100100 0.4 1005512
15:00+1nw61199100 0.4 1007543
18:000nw61195100 0.1 1009659
21:00−3nnw5129193 0.2 1012559
28 february, sun
sun2800:00−5n4109334 0.0 1014528
03:00−6n4109361 0.0 1016504
06:00−6nnw3109592 0.0 1017506
09:00−5n599393 0.2 1018605
12:00−3n588995 0.1 1019682
15:00−3n578897 0.1 1020759
18:00−3n3891100 0.1 1021457
21:00−3nnw4991100 0.1 1024414
1 march, mon
mon100:00−4n4894100 0.1 1026407
03:00−6nnw359592 0.1 1027135
06:00−5wnw3492100 0.0 1028123
09:00−4wnw3688100 0.0 1028353
12:00−3w57905 0.0 1028411
15:00−1w6109141 0.0 1026545
18:00−1w6129293 0.0 1024660
21:000w6129296 0.0 1023523